Location: Malvern Link
(52.1333°N, 2.3000°W)
Time: 04:37:49
(UTC+00:00)

Envisat - Pass Details

Date: 27 January 2022
Orbit: 764 x 765 km, 98.2° (Epoch: 25 May)

Event Time Altitude Azimuth Distance (km) Brightness Sun altitude
Rises 03:39:05 0° 27° (NNE) 3,244 6.8 -39.0°
Reaches altitude 10° 03:42:25 10° 50° (NE) 2,312 6.1 -38.6°
Maximum altitude 03:45:21 15° 86° (E) 1,963 5.7 -38.1°
Drops below altitude 10° 03:48:17 10° 121° (ESE) 2,302 5.8 -37.7°
Sets 03:51:35 0° 144° (SE) 3,223 6.4 -37.2°
